Tracking 25995 objects as of 20-Aug-2022
HD Live streaming from Space Station
objects crossing your sky now

BRAZILSAT 1

Track BRAZILSAT 1 now!
BRAZILSAT 1 is classified as:


NORAD ID: 15561
Int'l Code: 1985-015B
Perigee: 35,987.2 km
Apogee: 36,007.9 km
Inclination: 14.9 °
Period: 1,446.5 minutes
Semi major axis: 42368 km
RCS: 2.7147 m2 (large)
Launch date: February 8, 1985
Source: Brazil (BRAZ)
Launch site: FRENCH GUIANA (FRGUI)
aabbcc
Your satellite tracking list
Your tracking list is empty




NASA's NSSDC Master Catalog

Two Line Element Set (TLE):
1 15561U 85015B   22231.56518823  .00000059  00000-0  00000-0 0  9999
2 15561  14.8892 355.5271 0002441  68.1320 318.5329  0.99549023 32435
Source of the keplerian elements: AFSPC